Location: Newark
(54.3386°S, 169.8415°W)
Time: 18:47:30
(UTC+00:00)

OTV 5 (USA 277) - Visible Passes

Search period start: 15 September 2019 00:00
Search period end: 25 September 2019 00:00
Orbit: 295 x 339 km, 54.5° (Epoch: 08 September)

Date Brightness Start Highest point End Pass type
(mag) Time Alt. Az. Time Alt. Az. Time Alt. Az.
15 Sep ? 14:42:10 21° E 14:42:10 21° E 14:43:19 10° E visible
15 Sep ? 16:13:03 20° W 16:14:41 43° NNW 16:17:27 10° NE visible
16 Sep ? 14:56:17 29° ENE 14:56:17 29° ENE 14:57:53 10° ENE visible
16 Sep ? 16:27:09 14° W 16:29:05 26° NNW 16:31:34 10° NNE visible
17 Sep ? 15:10:28 34° NE 15:10:28 34° NE 15:12:21 10° ENE visible
17 Sep ? 16:41:40 10° WNW 16:43:24 15° NW 16:45:09 10° N visible
18 Sep ? 15:24:47 27° N 15:24:47 27° N 15:26:38 10° NE visible
19 Sep ? 15:39:17 17° N 15:39:17 17° N 15:40:33 10° NNE visible
